Tracking 19638 objects as of 19-Apr-2019
HD Live streaming from Space Station
objects crossing your sky now

FLOCK 1C 3

Track FLOCK 1C 3 now!
10-day predictions
FLOCK 1C 3 is classified as:


NORAD ID: 40041
Int'l Code: 2014-033AH
Perigee: 598.5 km
Apogee: 614.7 km
Inclination: 97.9 °
Period: 96.7 minutes
Semi major axis: 6977 km
RCS: Unknown
Launch date: June 19, 2014
Source: United States (US)
Launch site: Orenburg, Russia (OREN)
aabbcc
Your satellite tracking list
Your tracking list is empty




NASA's NSSDC Master Catalog

Two Line Element Set (TLE):
1 40041U 14033AH  19107.83857977 +.00000484 +00000-0 +56716-4 0  9997
2 40041 097.9267 030.8563 0011604 247.8078 112.1909 14.89517076262140
Source of the keplerian elements: AFSPC